TimeEDT,TemperatureF,Dew PointF,Humidity,Sea Level PressureIn,VisibilityMPH,Wind Direction,Wind SpeedMPH,Gust SpeedMPH,PrecipitationIn,Events,Conditions,WindDirDegrees,DateUTC
12:14 AM,25.7,20.8,82,30.02,10.0,Calm,Calm,-,N/A,,Clear,0,2013-03-24 04:14:00
12:34 AM,26.2,21.7,83,30.01,10.0,Calm,Calm,-,N/A,,Clear,0,2013-03-24 04:34:00
12:55 AM,27.1,21.9,81,30.01,10.0,Calm,Calm,-,N/A,,Clear,0,2013-03-24 04:55:00
1:14 AM,26.6,20.8,79,30.00,10.0,Calm,Calm,-,N/A,,Clear,0,2013-03-24 05:14:00
1:34 AM,25.5,20.7,82,30.00,10.0,Calm,Calm,-,N/A,,Clear,0,2013-03-24 05:34:00
1:54 AM,25.7,21.0,82,30.00,10.0,Calm,Calm,-,N/A,,Clear,0,2013-03-24 05:54:00
2:14 AM,24.6,20.1,83,30.00,10.0,Calm,Calm,-,N/A,,Clear,0,2013-03-24 06:14:00
2:34 AM,24.4,20.5,85,30.00,10.0,Calm,Calm,-,N/A,,Clear,0,2013-03-24 06:34:00
2:54 AM,23.9,19.8,84,30.00,10.0,Calm,Calm,-,N/A,,Clear,0,2013-03-24 06:54:00
3:15 AM,24.1,19.9,84,30.01,10.0,Calm,Calm,-,N/A,,Clear,0,2013-03-24 07:15:00
3:34 AM,23.0,19.4,86,30.00,10.0,Calm,Calm,-,N/A,,Clear,0,2013-03-24 07:34:00
3:54 AM,23.4,20.1,87,30.00,10.0,Calm,Calm,-,N/A,,Clear,0,2013-03-24 07:54:00
4:14 AM,22.1,19.0,88,30.00,10.0,Calm,Calm,-,N/A,,Clear,0,2013-03-24 08:14:00
4:34 AM,22.8,19.9,89,30.00,10.0,Calm,Calm,-,N/A,,Clear,0,2013-03-24 08:34:00
4:54 AM,22.8,19.4,87,29.99,10.0,Calm,Calm,-,N/A,,Clear,0,2013-03-24 08:54:00
5:14 AM,23.0,20.1,89,29.98,10.0,Calm,Calm,-,N/A,,Clear,0,2013-03-24 09:14:00
5:35 AM,23.4,20.5,89,29.97,10.0,NNE,3.5,-,N/A,,Clear,20,2013-03-24 09:35:00
5:54 AM,23.9,21.2,89,29.98,10.0,NNE,3.5,-,N/A,,Clear,30,2013-03-24 09:54:00
6:14 AM,24.1,21.2,89,29.98,10.0,NNE,3.5,-,N/A,,Clear,20,2013-03-24 10:14:00
6:35 AM,24.6,21.6,88,29.98,10.0,Calm,Calm,-,N/A,,Clear,0,2013-03-24 10:35:00
6:54 AM,24.8,21.7,88,29.98,10.0,Calm,Calm,-,N/A,,Clear,0,2013-03-24 10:54:00
7:14 AM,24.8,21.6,87,29.98,10.0,Calm,Calm,-,N/A,,Clear,0,2013-03-24 11:14:00
7:35 AM,24.8,21.7,88,29.97,10.0,NE,3.5,-,N/A,,Clear,40,2013-03-24 11:35:00
7:54 AM,25.7,22.5,88,29.97,10.0,NNE,5.8,-,N/A,,Clear,30,2013-03-24 11:54:00
8:14 AM,27.0,22.8,84,29.96,10.0,NE,5.8,-,N/A,,Clear,40,2013-03-24 12:14:00
8:35 AM,27.9,22.8,81,29.95,10.0,NE,8.1,-,N/A,,Clear,50,2013-03-24 12:35:00
8:54 AM,28.4,23.0,80,29.95,10.0,NE,6.9,-,N/A,,Clear,50,2013-03-24 12:54:00
9:15 AM,29.1,23.5,80,29.95,10.0,NE,8.1,-,N/A,,Clear,50,2013-03-24 13:15:00
9:34 AM,29.7,23.9,79,29.95,10.0,ENE,8.1,-,N/A,,Clear,60,2013-03-24 13:34:00
9:54 AM,30.2,24.3,79,29.95,10.0,ENE,4.6,-,N/A,,Clear,60,2013-03-24 13:54:00
10:15 AM,30.6,24.4,78,29.93,10.0,NE,9.2,-,N/A,,Clear,40,2013-03-24 14:15:00
10:34 AM,30.7,24.8,79,29.92,10.0,NE,9.2,-,N/A,,Scattered Clouds,40,2013-03-24 14:34:00
10:54 AM,31.1,25.3,79,29.91,10.0,NE,9.2,-,N/A,,Mostly Cloudy,40,2013-03-24 14:54:00
11:15 AM,31.5,25.7,79,29.90,10.0,NNE,9.2,-,N/A,,Mostly Cloudy,30,2013-03-24 15:15:00
11:34 AM,31.8,25.5,78,29.90,10.0,NE,10.4,-,N/A,,Overcast,50,2013-03-24 15:34:00
11:54 AM,32.0,25.7,78,29.88,10.0,NE,9.2,-,N/A,,Overcast,50,2013-03-24 15:54:00
12:15 PM,32.4,25.5,76,29.87,10.0,NE,11.5,17.3,N/A,,Overcast,40,2013-03-24 16:15:00
12:34 PM,32.9,25.5,74,29.85,10.0,NE,10.4,18.4,N/A,,Overcast,50,2013-03-24 16:34:00
12:54 PM,33.4,24.8,71,29.84,10.0,NNE,11.5,17.3,N/A,,Overcast,30,2013-03-24 16:54:00
1:15 PM,34.2,24.1,67,29.83,10.0,NE,12.7,16.1,N/A,,Overcast,50,2013-03-24 17:15:00
1:34 PM,34.7,23.7,64,29.81,10.0,NE,11.5,-,N/A,,Overcast,50,2013-03-24 17:34:00
1:54 PM,35.6,24.3,63,29.80,10.0,ENE,10.4,19.6,N/A,,Overcast,70,2013-03-24 17:54:00
2:14 PM,35.2,23.4,62,29.80,10.0,ENE,11.5,19.6,N/A,,Overcast,60,2013-03-24 18:14:00
2:34 PM,35.2,23.0,61,29.80,10.0,ENE,15.0,19.6,N/A,,Overcast,60,2013-03-24 18:34:00
2:55 PM,35.2,23.0,61,29.78,10.0,NE,10.4,17.3,N/A,,Overcast,50,2013-03-24 18:55:00
3:14 PM,35.6,23.2,61,29.77,10.0,ENE,13.8,19.6,N/A,,Overcast,70,2013-03-24 19:14:00
3:34 PM,35.1,23.4,62,29.77,10.0,ENE,12.7,18.4,N/A,,Overcast,60,2013-03-24 19:34:00
3:55 PM,34.7,23.5,64,29.76,10.0,ENE,12.7,21.9,N/A,,Overcast,60,2013-03-24 19:55:00
4:14 PM,35.6,22.5,59,29.75,10.0,ENE,11.5,-,N/A,,Overcast,60,2013-03-24 20:14:00
4:34 PM,36.5,20.3,52,29.73,10.0,NE,10.4,18.4,N/A,,Overcast,50,2013-03-24 20:34:00
4:55 PM,37.0,19.0,48,29.72,10.0,ENE,18.4,23.0,N/A,,Overcast,60,2013-03-24 20:55:00
5:14 PM,36.3,17.8,47,29.71,10.0,NE,12.7,18.4,N/A,,Overcast,50,2013-03-24 21:14:00
5:34 PM,35.6,18.3,50,29.70,10.0,NE,12.7,20.7,N/A,,Overcast,40,2013-03-24 21:34:00
5:55 PM,34.7,18.5,52,29.70,10.0,NE,18.4,25.3,N/A,,Overcast,50,2013-03-24 21:55:00
6:14 PM,33.8,19.2,55,29.69,10.0,NE,13.8,20.7,N/A,,Overcast,40,2013-03-24 22:14:00
6:34 PM,33.1,18.3,55,29.68,10.0,NE,16.1,25.3,N/A,,Overcast,40,2013-03-24 22:34:00
7:14 PM,32.2,18.1,56,29.68,10.0,NE,13.8,21.9,N/A,,Overcast,50,2013-03-24 23:14:00
7:34 PM,32.0,18.3,57,29.67,10.0,NE,16.1,27.6,N/A,,Overcast,40,2013-03-24 23:34:00
7:54 PM,32.0,18.5,58,29.67,10.0,NE,12.7,23.0,N/A,,Overcast,50,2013-03-24 23:54:00
8:14 PM,31.8,19.4,60,29.68,10.0,NE,13.8,18.4,N/A,,Overcast,50,2013-03-25 00:14:00
8:35 PM,31.6,19.4,61,29.68,10.0,NE,9.2,20.7,N/A,,Overcast,50,2013-03-25 00:35:00
8:54 PM,31.6,19.8,62,29.67,10.0,NE,10.4,20.7,N/A,,Overcast,50,2013-03-25 00:54:00
9:14 PM,31.6,20.3,63,29.67,10.0,NE,10.4,17.3,N/A,,Overcast,50,2013-03-25 01:14:00
9:35 PM,31.5,20.3,63,29.67,10.0,NE,8.1,20.7,N/A,,Overcast,40,2013-03-25 01:35:00
9:54 PM,31.1,21.0,66,29.67,10.0,NE,10.4,-,N/A,,Overcast,50,2013-03-25 01:54:00
10:14 PM,31.1,21.6,68,29.66,10.0,NE,13.8,17.3,N/A,,Overcast,40,2013-03-25 02:14:00
10:34 PM,31.1,21.9,69,29.66,10.0,NE,9.2,19.6,N/A,,Overcast,40,2013-03-25 02:34:00
10:54 PM,30.9,22.1,70,29.65,10.0,NE,10.4,19.6,N/A,,Overcast,40,2013-03-25 02:54:00
11:15 PM,30.9,22.1,70,29.65,10.0,NE,11.5,19.6,N/A,,Overcast,40,2013-03-25 03:15:00
11:34 PM,30.9,22.1,70,29.64,10.0,NE,11.5,17.3,N/A,,Overcast,40,2013-03-25 03:34:00
11:54 PM,30.9,22.1,70,29.65,10.0,NE,12.7,16.1,N/A,,Overcast,40,2013-03-25 03:54:00